Weather History for Rochester, NY

Change the Weather History Date:

Saturday, April 5, 2014

  Actual Average Record
Temperature  
Mean Temperature 36 °F 42 °F  
Max Temperature 43 °F 51 °F 83 °F (1910)
Min Temperature 29 °F 33 °F 15 °F (1879)
Degree Days  
Heating Degree Days 29 23  
Month to date heating degree days 130 119  
Since 1 July heating degree days 6363 5857  
Cooling Degree Days 0 0  
Month to date cooling degree days 0 0  
Year to date cooling degree days 0 0  
Moisture  
Dew Point 27 °F    
Average Humidity 68    
Maximum Humidity 82    
Minimum Humidity 54    
Precipitation  
Precipitation 0.01 in 0.09 in 1.30 in (1952)
Month to date precipitation 0.52 0.46  
Year to date precipitation 6.50 7.32  
Snow  
Snow 0.10 in 0.20 in 3.00 in (1914)
Month to date snowfall 0.1 1.2  
Since 1 July snowfall 112.5 96.4  
Snow Depth 0.00 in    
Sea Level Pressure  
Sea Level Pressure 29.89 in    
Wind  
Wind Speed 17 mph (West)    
Max Wind Speed 30 mph    
Max Gust Speed 40 mph    
Visibility 9 miles    
Events Snow    
T = Trace of Precipitation, MM = Missing Value Source: NWS Daily Summary

Daily Weather History Graph

Daily Weather History Graph

Search for Another Location

Airport:

Trip Planner

Search our weather history database for the weather conditions in past years. The results will help you decide how hot, cold, wet, or windy it might be!

Date:

Astronomy

Apr. 05, 2014 Rise Set
Actual Time 6:45 AM EDT 7:41 PM EDT
Civil Twilight 6:16 AM EDT 8:10 PM EDT
Nautical Twilight 5:42 AM EDT 8:45 PM EDT
Astronomical Twilight 5:06 AM EDT 9:21 PM EDT
Moon 10:46 AM EDT (4/5) 12:55 AM EDT (4/5)
Length of Visible Light 13h 53m
Length of Day
12h 56m
Waxing Crescent, 34% of the Moon is Illuminated
Apr 5
Waxing Crescent
Apr 7
First Quarter
Apr 15
Full
Apr 22
Last Quarter
Apr 29
New

Hourly Weather History & Observations

Time (EDT) Temp. Windchill Dew Point Humidity Pressure Visibility Wind Dir Wind Speed Gust Speed Precip Events Conditions
12:54 AM 43.0 °F 33.1 °F 33.1 °F 68% 29.65 in 10.0 mi West 26.5 mph 40.3 mph N/A   Mostly Cloudy
1:54 AM 42.1 °F 32.3 °F 32.0 °F 67% 29.68 in 10.0 mi West 24.2 mph 39.1 mph N/A   Overcast
2:54 AM 41.0 °F 32.2 °F 30.0 °F 65% 29.70 in 10.0 mi WSW 18.4 mph - N/A   Overcast
3:54 AM 39.9 °F 29.5 °F 30.0 °F 68% 29.70 in 10.0 mi WSW 24.2 mph 38.0 mph N/A   Overcast
4:54 AM 39.0 °F 27.8 °F 30.0 °F 70% 29.72 in 10.0 mi WSW 26.5 mph 36.8 mph N/A   Overcast
5:54 AM 37.9 °F 27.1 °F 28.9 °F 70% 29.73 in 10.0 mi WSW 23.0 mph 32.2 mph 0.00 in   Overcast
6:01 AM 39.2 °F 28.7 °F 28.4 °F 65% 29.72 in 10.0 mi WSW 23.0 mph 34.5 mph N/A   Overcast
6:54 AM 37.0 °F 25.4 °F 28.9 °F 73% 29.76 in 10.0 mi WSW 25.3 mph 31.1 mph 0.00 in Snow Light Snow
7:54 AM 37.0 °F 25.4 °F 28.9 °F 73% 29.79 in 10.0 mi WSW 25.3 mph 33.4 mph 0.00 in Snow Light Snow
8:07 AM 35.6 °F 25.5 °F 30.2 °F 81% 29.77 in 8.0 mi WSW 17.3 mph 27.6 mph 0.00 in Snow Light Snow
8:44 AM 35.6 °F 24.8 °F 30.2 °F 81% 29.78 in 8.0 mi WSW 19.6 mph 26.5 mph 0.00 in Snow Light Snow
8:54 AM 36.0 °F 27.5 °F 30.0 °F 79% 29.81 in 8.0 mi West 12.7 mph 26.5 mph 0.00 in Snow Light Snow
9:47 AM 33.8 °F 23.2 °F 30.2 °F 87% 29.82 in 2.5 mi WNW 17.3 mph 24.2 mph 0.01 in Snow Light Snow
9:54 AM 34.0 °F 23.0 °F 28.9 °F 82% 29.85 in 3.0 mi West 18.4 mph 25.3 mph 0.01 in Snow Light Snow
10:23 AM 35.6 °F 23.7 °F 24.8 °F 65% 29.84 in 9.0 mi West 24.2 mph 36.8 mph 0.00 in Snow Light Snow
10:54 AM 35.1 °F 24.1 °F 24.1 °F 64% 29.89 in 9.0 mi WNW 19.6 mph 34.5 mph 0.00 in Snow Light Snow
11:54 AM 36.0 °F 25.6 °F 23.0 °F 59% 29.92 in 10.0 mi West 18.4 mph 34.5 mph 0.00 in   Overcast
12:54 PM 35.1 °F 23.0 °F 21.9 °F 59% 29.95 in 10.0 mi West 24.2 mph 34.5 mph 0.00 in   Overcast
1:54 PM 35.1 °F 24.5 °F 23.0 °F 61% 29.98 in 10.0 mi West 18.4 mph 27.6 mph N/A   Overcast
2:54 PM 37.0 °F 27.0 °F 23.0 °F 57% 29.99 in 10.0 mi West 18.4 mph 31.1 mph N/A   Overcast
3:54 PM 37.0 °F 26.4 °F 23.0 °F 57% 30.01 in 10.0 mi West 20.7 mph 28.8 mph N/A   Mostly Cloudy
4:54 PM 39.0 °F 30.6 °F 24.1 °F 55% 30.04 in 10.0 mi West 15.0 mph 28.8 mph N/A   Mostly Cloudy
5:54 PM 39.0 °F 30.6 °F 24.1 °F 55% 30.06 in 10.0 mi West 15.0 mph 26.5 mph N/A   Mostly Cloudy
6:54 PM 37.0 °F 27.4 °F 26.1 °F 65% 30.08 in 10.0 mi West 17.3 mph 24.2 mph N/A   Mostly Cloudy
7:54 PM 36.0 °F 30.3 °F 24.1 °F 62% 30.10 in 10.0 mi West 6.9 mph - N/A   Scattered Clouds
8:54 PM 34.0 °F 25.5 °F 26.1 °F 73% 30.14 in 10.0 mi West 11.5 mph - N/A   Partly Cloudy
9:54 PM 33.1 °F 25.5 °F 26.1 °F 75% 30.16 in 10.0 mi West 9.2 mph - N/A   Clear
10:54 PM 32.0 °F 26.4 °F 26.1 °F 79% 30.16 in 10.0 mi West 5.8 mph - N/A   Clear
11:54 PM 32.0 °F 26.4 °F 25.0 °F 75% 30.18 in 10.0 mi West 5.8 mph - N/A   Clear